Wetbulb
61.83 61.79 61.73 61.76 61.67 61.67 61.64 61.47 61.14 61.17 61.46 61.86 62.13 62.22 62.08 62.06 61.95 61.99 62.15 62.43 62.53 62.59 62.63 62.67 62.45 62.72 63.12 63.64 63.88 63.99 63.96 63.86 63.70 63.45 63.29 63.35 63.33 63.21 63.04 62.82 62.60 62.37 62.25 62.12 62.07 62.03 61.99 61.86 61.77 61.59 61.56 61.43 61.44 61.46 61.46 61.73 61.72 61.67 61.53 61.35 61.31 61.21 61.39 61.62 61.62 61.52 61.14 60.87 60.78
61.56 61.60 61.59 61.46 61.46 61.56 61.56 61.40 61.36 61.49 61.89 62.55 62.83 62.88 62.91 62.85 62.81 62.74 62.81 62.87 62.99 63.19 63.24 63.40 63.50 63.68 63.77 63.89 63.99 63.90 63.74 63.39 63.27 63.15 63.03 63.09 63.05 62.82 62.46 62.21 61.94 61.85 61.89 61.89 62.07 62.12 62.04 61.72 61.68 61.51 61.43 61.30 61.40 61.37 61.37 61.59 61.80 61.80 61.62 61.31 61.31 61.35 61.43 61.57 61.71 61.65 61.46 60.98 60.75
61.51 61.51 61.46 61.34 61.34 61.35 61.31 61.23 61.19 61.43 61.83 62.45 62.74 62.87 62.82 62.81 62.86 62.87 62.87 63.05 63.22 63.09 62.92 62.81 62.90 63.16 63.27 63.37 63.51 63.51 63.33 63.16 62.99 62.82 62.61 62.44 62.25 62.07 61.85 61.68 61.54 61.49 61.57 61.75 61.94 61.95 61.91 61.77 61.68 61.56 61.48 61.48 61.40 61.32 61.33 61.46 61.89 61.98 61.89 61.67 61.76 61.71 61.66 61.57 61.84 62.02 61.93 61.62 61.30
61.40 61.19 60.93 60.71 60.80 60.71 60.77 60.96 60.83 61.07 61.39 61.75 61.83 61.91 62.00 62.22 62.36 62.41 62.45 62.63 62.70 62.55 62.34 62.13 62.00 62.18 62.39 62.60 62.64 62.63 62.63 62.41 62.32 62.10 61.95 61.68 61.50 61.46 61.50 61.55 61.46 61.45 61.54 61.86 61.91 61.83 61.65 61.56 61.25 60.88 60.49 60.08 59.99 59.95 60.14 60.77 61.17 60.99 60.54 60.18 60.81 61.12 61.16 60.94 60.98 61.25 61.43 61.30 60.80
61.01 60.83 60.66 60.54 60.48 60.48 60.53 60.68 60.59 60.64 60.88 61.21 61.11 61.11 61.20 61.51 61.74 61.78 61.78 61.78 61.83 62.00 62.03 61.92 61.62 61.58 61.62 61.80 61.80 61.84 61.83 61.70 61.11 61.31 61.46 61.34 61.21 61.21 61.34 61.37 61.46 61.56 61.65 61.79 61.62 61.25 60.75 60.20 59.80 59.31 58.86 58.59 58.86 58.95 59.17 59.63 59.76 59.04 58.28 57.69 58.19 58.86 59.35 59.45 59.35 59.63 59.85 59.58 58.77
60.68 60.72 60.72 60.73 60.62 60.53 60.59 60.73 60.53 60.59 60.65 60.79 60.61 60.52 60.58 60.80 61.11 61.19 61.19 61.16 61.25 61.56 61.81 61.65 61.39 61.17 60.99 61.04 61.18 61.32 61.36 61.31 60.99 61.04 61.14 61.12 61.12 61.22 61.12 61.03 61.12 61.25 61.30 61.12 60.58 60.03 59.48 58.97 58.44 58.00 57.68 57.68 57.77 57.82 57.95 58.03 57.99 57.55 56.78 56.29 56.24 56.83 57.59 58.09 57.95 58.13 58.27 57.95 57.14
60.77 60.78 60.78 60.69 60.77 60.73 60.64 60.69 60.73 60.64 60.55 60.47 60.19 60.06 60.11 60.29 60.56 60.70 60.88 60.93 61.16 61.39 61.52 61.51 61.41 61.23 61.01 60.83 60.69 60.78 60.87 61.05 61.01 61.01 60.96 61.12 61.03 60.94 60.76 60.67 60.71 60.76 60.71 60.35 59.67 59.17 58.76 58.34 57.77 57.23 56.96 56.87 56.78 56.73 56.73 57.03 56.81 56.37 55.74 55.15 55.16 55.61 56.24 56.78 56.91 57.14 57.14 56.69 56.05
60.96 60.96 60.96 60.96 60.91 60.77 60.68 60.64 60.64 60.56 60.38 60.20 60.06 59.92 59.95 60.05 60.19 60.37 60.56 60.61 60.71 60.85 61.03 61.20 61.28 61.28 61.14 60.96 60.78 60.70 60.70 60.64 60.78 60.83 60.83 60.88 60.76 60.58 60.39 60.35 60.30 60.21 59.90 59.49 58.85 58.44 58.03 57.80 57.13 56.78 56.51 56.33 56.24 56.15 56.10 56.00 55.73 55.27 54.79 54.20 54.12 54.53 55.15 55.87 56.24 56.28 56.14 55.69 55.37
60.79 60.83 61.05 61.14 61.04 60.90 60.77 60.69 60.60 60.38 60.07 59.85 59.79 59.87 59.86 59.95 60.04 60.14 60.20 60.16 60.21 60.25 60.43 60.66 60.70 60.69 60.69 60.64 60.55 60.47 60.47 60.43 60.43 60.47 60.61 60.56 60.30 60.12 60.03 59.89 59.67 59.35 58.99 58.54 58.07 57.80 57.43 57.03 56.41 56.15 56.01 55.96 55.83 55.74 55.46 55.04 54.77 54.37 53.93 53.57 53.53 53.71 54.11 54.79 55.33 55.55 55.46 55.09 54.83
60.70 60.83 61.06 61.15 61.05 60.95 60.82 60.83 60.64 60.33 59.97 59.66 59.75 59.79 59.74 59.56 59.86 60.10 60.19 60.25 60.11 59.97 59.98 60.03 60.07 60.03 59.89 59.70 59.57 59.52 59.57 59.66 59.70 59.80 59.80 59.80 59.71 59.57 59.53 59.39 58.99 58.68 58.32 58.04 57.80 57.34 56.89 56.41 55.83 55.51 55.42 55.56 55.51 55.10 54.69 54.37 54.05 53.74 53.47 53.52 53.34 53.35 53.53 53.93 54.38 54.65 54.69 54.42 53.92
61.05 61.10 61.19 61.25 61.14 61.05 60.87 60.83 60.65 60.43 60.02 59.75 59.84 59.92 59.92 59.70 60.01 60.19 60.37 60.37 60.16 59.93 59.74 59.88 59.84 59.76 59.57 59.30 59.12 58.99 58.89 59.03 59.03 58.99 58.94 58.95 58.90 58.94 58.94 58.89 58.52 58.25 57.98 57.85 57.67 57.17 56.58 56.10 55.38 54.92 54.79 54.92 54.79 54.56 54.15 53.87 53.65 53.29 53.11 53.30 53.20 53.12 53.07 53.21 53.57 53.88 53.84 53.52 53.07
61.45 61.46 61.46 61.46 61.40 61.22 61.10 60.96 60.79 60.48 60.25 59.92 59.97 60.15 60.24 60.19 60.26 60.27 60.19 60.16 59.98 59.79 59.83 59.90 59.82 59.79 59.65 59.48 59.20 59.02 58.97 58.97 58.79 58.66 58.49 58.45 58.40 58.39 58.44 58.39 58.25 58.07 57.84 57.75 57.48 57.08 56.54 55.87 55.19 54.61 54.25 54.16 54.38 54.20 53.93 53.56 53.33 52.97 52.75 52.80 52.79 52.84 52.80 52.71 52.94 53.16 53.34 53.11 52.57
61.49 61.46 61.37 61.41 61.40 61.22 60.99 60.96 60.83 60.66 60.38 60.15 60.15 60.37 60.55 60.60 60.54 60.32 60.02 59.85 59.84 59.88 59.87 59.82 59.81 59.81 59.82 59.65 59.42 59.28 59.19 59.10 58.88 58.70 58.49 58.22 58.17 58.03 57.99 57.99 57.89 57.80 57.70 57.56 57.39 57.03 56.45 55.63 54.96 54.37 54.02 53.79 54.02 53.93 53.65 53.42 53.24 52.88 52.53 52.35 52.35 52.30 52.21 52.12 52.44 52.62 52.80 52.66 52.08
61.40 61.14 61.06 61.10 61.04 60.95 60.82 60.60 60.47 60.43 60.38 60.24 60.38 60.56 60.65 60.70 60.51 60.25 59.97 59.79 59.88 59.83 59.83 59.79 59.79 59.87 59.77 59.58 59.45 59.27 59.14 59.05 58.92 58.75 58.43 58.21 58.07 57.89 57.76 57.67 57.49 57.40 57.34 57.44 57.21 56.84 56.35 55.68 55.08 54.64 54.19 53.84 53.70 53.52 53.47 53.51 53.37 53.06 52.66 52.30 52.07 51.94 51.90 51.81 51.99 52.12 52.08 51.94 51.40
61.04 60.96 60.78 60.69 60.64 60.50 60.37 60.15 60.02 60.03 59.97 59.97 60.21 60.34 60.43 60.49 60.30 60.12 59.98 59.79 59.74 59.74 59.74 59.70 59.57 59.47 59.41 59.31 59.22 59.04 59.00 58.91 58.78 58.65 58.43 58.12 57.98 57.85 57.62 57.40 57.08 56.99 56.99 57.08 56.99 56.62 56.16 55.71 55.44 55.13 54.72 54.24 53.83 53.56 53.42 53.50 53.41 53.23 53.05 52.78 52.42 52.11 51.85 51.67 51.71 51.71 51.62 51.35 50.81
60.78 60.69 60.60 60.42 60.19 60.06 59.88 59.70 59.66 59.57 59.44 59.44 59.62 59.76 59.90 59.90 59.90 59.85 59.76 59.61 59.61 59.52 59.43 59.30 59.21 59.12 59.02 58.83 58.87 58.82 58.74 58.70 58.56 58.38 58.25 57.98 57.85 57.67 57.49 57.21 56.86 56.63 56.54 56.45 56.31 56.09 55.72 55.39 55.39 55.26 54.99 54.59 54.23 53.96 53.69 53.64 53.46 53.28 53.18 53.05 52.73 52.24 51.89 51.57 51.53 51.40 51.22 51.13 50.54
60.15 60.19 60.24 60.19 59.92 59.65 59.43 59.29 59.25 59.12 58.94 58.95 58.99 59.13 59.17 59.22 59.40 59.35 59.26 59.16 59.25 59.16 59.07 58.88 58.89 58.80 58.67 58.44 58.57 58.61 58.57 58.39 58.30 58.16 57.98 57.80 57.53 57.40 57.21 56.99 56.72 56.45 56.13 55.86 55.50 55.01 54.55 54.28 54.41 54.36 54.27 54.18 54.27 54.13 53.91 53.73 53.59 53.37 53.09 52.73 52.33 51.83 51.43 51.30 51.16 51.03 50.76 50.67 50.17
58.99 59.12 59.30 59.48 59.43 59.29 59.16 58.97 58.85 58.62 58.44 58.32 58.22 58.32 58.45 58.54 58.59 58.68 58.67 58.75 58.97 58.88 58.70 58.57 58.57 58.52 58.44 58.30 58.35 58.39 58.30 58.16 58.07 57.98 57.89 57.62 57.34 57.08 56.81 56.54 56.27 56.04 55.73 55.45 54.82 54.15 53.57 53.34 53.20 53.15 53.29 53.33 53.46 53.46 53.28 53.19 53.01 52.69 52.24 51.79 51.43 51.03 50.76 50.62 50.44 50.31 50.17 49.95 49.68
57.77 57.77 57.86 57.95 58.17 58.39 58.57 58.56 58.47 58.25 57.89 57.58 57.45 57.36 57.36 57.50 57.54 57.59 57.77 57.99 58.29 58.42 58.42 58.30 58.30 58.25 58.25 58.12 58.12 57.98 57.89 57.94 57.80 57.66 57.43 57.16 56.84 56.49 56.04 55.54 55.18 54.96 54.78 54.64 54.01 53.38 52.93 52.62 52.48 52.39 52.34 52.25 51.98 51.75 51.57 51.48 51.30 50.94 50.62 50.22 49.95 49.72 49.50 49.32 49.09 48.96 48.91 48.82 48.64
56.96 56.78 56.73 56.73 56.82 56.99 57.21 57.39 57.38 57.21 56.99 56.63 56.36 56.14 56.10 56.01 56.10 56.05 56.05 56.19 56.68 57.21 57.56 57.57 57.49 57.49 57.49 57.62 57.49 57.35 57.21 57.34 57.16 56.85 56.40 55.99 55.59 55.18 54.64 54.06 53.65 53.38 53.29 53.15 52.75 52.29 52.03 51.89 51.76 51.67 51.57 51.26 50.72 50.31 49.90 49.72 49.41 49.09 48.82 48.64 48.32 48.14 48.01 47.83 47.65 47.56 47.56 47.56 47.42
56.33 56.24 56.05 55.96 55.69 55.55 55.46 55.41 55.45 55.45 55.36 55.18 54.91 54.69 54.47 54.38 54.25 54.07 53.93 54.02 54.52 55.06 55.41 55.59 55.59 55.68 55.73 55.91 55.82 55.59 55.36 55.41 55.45 55.14 54.55 54.10 53.74 53.33 52.97 52.70 52.34 52.12 51.98 51.75 51.57 51.39 51.17 51.03 50.94 50.90 50.76 50.44 49.99 49.41 48.91 48.50 48.14 47.87 47.60 47.51 47.24 47.10 47.06 46.92 46.79 46.70 46.56 46.52 46.38
55.43 55.33 55.24 54.97 54.60 54.33 54.11 53.92 53.87 53.78 53.65 53.47 53.33 53.16 52.93 52.66 52.39 52.21 52.21 52.44 52.71 52.80 52.84 52.80 52.84 52.98 53.07 53.34 53.25 53.02 52.84 52.80 52.79 52.75 52.52 52.25 51.98 51.80 51.67 51.62 51.35 51.08 50.81 50.67 50.62 50.49 50.31 50.13 50.08 50.08 49.90 49.72 49.27 48.77 48.32 47.92 47.42 47.10 46.83 46.65 46.56 46.47 46.47 46.43 46.29 46.20 46.02 45.88 45.79
53.57 53.79 53.79 53.70 53.47 53.20 52.97 52.88 52.75 52.48 52.25 51.98 51.85 51.62 51.39 51.17 51.04 50.99 50.99 51.03 50.99 50.81 50.63 50.58 50.58 50.63 50.72 50.90 50.94 50.81 50.72 50.49 50.40 50.36 50.49 50.49 50.36 50.36 50.36 50.58 50.31 50.17 50.04 49.99 49.86 49.68 49.50 49.23 49.14 49.04 49.00 48.82 48.37 48.01 47.74 47.37 46.97 46.70 46.34 46.07 45.97 45.97 45.88 45.97 45.84 45.75 45.61 45.48 45.39
52.17 52.35 52.48 52.48 52.25 52.11 51.93 51.84 51.62 51.30 51.03 50.76 50.67 50.49 50.27 50.09 49.95 49.86 49.68 49.50 49.41 49.23 49.18 49.18 49.18 49.18 49.23 49.36 49.41 49.36 49.23 48.87 48.59 48.60 48.69 48.91 49.00 49.14 49.32 49.59 49.50 49.36 49.32 49.36 49.32 49.27 49.09 48.77 48.37 48.23 48.19 48.05 47.69 47.42 47.15 46.92 46.65 46.34 45.98 45.66 45.48 45.39 45.39 45.39 45.39 45.34 45.20 45.16 45.16
51.17 51.17 51.30 51.30 51.16 51.07 50.88 50.79 50.48 50.26 50.04 49.95 49.86 49.68 49.41 49.23 49.00 48.78 48.55 48.37 48.23 48.14 48.14 48.19 48.28 48.41 48.37 48.41 48.37 48.37 48.23 48.01 47.74 47.60 47.60 47.69 47.96 48.14 48.37 48.46 48.46 48.46 48.50 48.73 49.00 49.13 49.08 48.99 48.46 48.10 47.74 47.47 47.10 46.83 46.61 46.34 46.20 46.02 45.75 45.44 45.12 44.98 44.84 44.75 44.75 44.84 44.89 44.89 44.98
50.31 50.31 50.26 50.22 50.22 50.12 49.99 49.71 49.58 49.40 49.27 49.23 49.04 48.82 48.59 48.37 48.23 48.05 47.83 47.60 47.56 47.60 47.65 47.69 47.78 47.87 47.87 47.69 47.60 47.60 47.51 47.47 47.37 47.19 47.01 47.06 47.15 47.28 47.47 47.51 47.56 47.65 47.96 48.46 48.86 49.17 49.35 49.30 48.90 48.23 47.60 47.06 46.65 46.38 46.11 45.89 45.84 45.62 45.48 45.17 44.95 44.67 44.40 44.21 44.12 44.12 44.25 44.30 44.44
49.36 49.36 49.36 49.45 49.31 49.22 49.09 49.00 48.91 48.73 48.50 48.41 48.14 48.01 47.83 47.83 47.74 47.51 47.28 47.10 47.15 47.24 47.33 47.33 47.42 47.56 47.51 47.28 47.01 46.92 46.88 47.01 47.01 46.97 46.88 46.74 46.65 46.56 46.61 46.70 46.92 47.28 47.78 48.46 49.04 49.35 49.39 49.30 48.90 48.41 47.64 46.79 46.47 46.11 45.75 45.52 45.39 45.21 45.08 44.90 44.76 44.54 44.18 43.81 43.62 43.62 43.62 43.44 43.39
48.46 48.55 48.55 48.55 48.37 48.28 48.28 48.28 48.10 47.96 47.78 47.69 47.51 47.46 47.42 47.28 47.10 46.88 46.83 46.70 46.79 46.83 46.88 46.83 47.01 47.10 47.10 46.74 46.56 46.38 46.43 46.52 46.61 46.65 46.61 46.47 46.34 46.20 46.20 46.43 46.83 47.42 48.05 48.77 49.13 49.31 49.26 49.03 48.77 48.36 47.69 46.79 46.16 45.80 45.48 45.12 44.99 44.85 44.76 44.62 44.35 44.04 43.77 43.54 43.45 43.31 42.94 42.31 42.00
47.83 47.83 47.83 47.60 47.42 47.42 47.42 47.37 47.24 47.24 47.19 47.15 47.15 47.10 46.97 46.75 46.61 46.48 46.39 46.38 46.29 46.20 46.20 46.34 46.65 46.65 46.43 46.06 45.97 46.07 46.11 46.11 46.16 46.16 46.07 45.93 45.89 45.93 46.16 46.47 47.06 47.69 48.41 49.04 49.08 49.04 48.86 48.59 48.41 48.09 47.60 46.93 45.93 45.44 45.17 44.90 44.67 44.40 44.21 44.03 43.85 43.49 43.27 43.09 43.04 42.68 42.13 41.28 40.92
47.37 47.28 47.10 46.88 46.79 46.74 46.79 46.79 46.83 46.92 46.92 46.97 46.88 46.70 46.56 46.30 46.16 46.07 45.94 45.93 45.75 45.80 46.02 46.20 46.20 45.97 45.75 45.61 45.70 45.70 45.66 45.61 45.75 45.71 45.66 45.53 45.52 45.75 46.11 46.61 47.15 47.78 48.50 49.04 48.90 48.68 48.41 48.09 47.87 47.51 47.06 46.48 45.44 44.76 44.35 44.13 43.85 43.54 43.35 43.17 42.95 42.77 42.59 42.46 42.09 41.69 41.19 40.66 40.30
47.01 46.83 46.56 46.43 46.29 46.25 46.34 46.52 46.61 46.66 46.66 46.61 46.48 46.21 46.03 45.80 45.66 45.62 45.62 45.52 45.57 45.80 46.07 45.98 45.66 45.48 45.34 45.48 45.48 45.39 45.30 45.39 45.52 45.53 45.53 45.48 45.62 45.75 46.02 46.47 47.01 47.60 48.32 48.77 48.54 48.27 47.91 47.51 47.06 46.66 46.21 45.71 44.54 43.72 43.18 42.91 42.46 42.23 42.09 42.00 41.87 41.69 41.60 41.42 41.11 40.84 40.57 40.27 40.09
46.79 46.65 46.38 46.16 46.07 46.02 46.16 46.25 46.38 46.34 46.21 46.03 45.90 45.63 45.44 45.26 45.30 45.30 45.34 45.43 45.48 45.48 45.48 45.35 45.12 44.99 45.03 45.16 45.07 45.07 45.07 45.21 45.21 45.30 45.35 45.35 45.39 45.61 45.89 46.38 46.74 47.33 47.92 48.36 48.05 47.69 47.24 46.79 46.34 45.85 45.36 44.82 43.61 42.48 41.71 41.39 40.94 40.72 40.67 40.50 40.45 40.40 40.39 40.53 40.21 40.03 39.78 39.73 39.65
46.70 46.61 46.34 46.07 45.93 45.93 45.97 46.02 45.98 45.93 45.76 45.54 45.31 45.18 45.08 44.99 45.07 45.21 45.21 45.35 45.30 45.16 44.98 44.90 44.72 44.62 44.62 44.62 44.58 44.67 44.80 44.89 45.03 45.21 45.30 45.35 45.35 45.48 45.70 46.02 46.52 47.10 47.69 47.82 47.51 47.06 46.57 46.07 45.67 45.18 44.60 43.89 42.47 41.21 40.40 40.09 39.97 39.78 39.55 39.27 39.14 39.14 39.09 39.21 39.25 39.20 39.07 38.98 38.80
46.61 46.52 46.38 46.11 46.07 45.93 45.89 45.80 45.75 45.62 45.44 45.17 45.00 44.91 44.90 44.85 44.80 44.80 44.94 45.12 45.17 45.16 45.03 44.98 44.85 44.76 44.67 44.67 44.53 44.44 44.53 44.80 44.85 44.89 44.98 45.08 45.17 45.26 45.43 45.75 46.29 46.97 47.33 47.33 46.93 46.52 46.03 45.59 45.06 44.53 43.87 42.98 41.20 40.07 39.39 39.21 39.13 38.94 38.65 38.37 38.27 38.27 38.40 38.45 38.50 38.50 38.49 38.40 38.21
46.52 46.39 46.25 46.16 46.07 45.93 45.76 45.62 45.53 45.44 45.21 44.94 44.76 44.72 44.72 44.80 44.76 44.76 44.80 44.99 45.08 45.12 45.03 44.98 44.98 44.89 44.80 44.71 44.58 44.45 44.40 44.40 44.44 44.58 44.76 44.94 45.08 45.12 45.21 45.43 46.11 46.70 46.97 46.84 46.43 45.99 45.50 45.02 44.45 43.84 43.05 41.80 39.99 39.03 38.71 38.57 38.34 38.15 38.00 37.86 37.89 37.89 37.89 37.76 37.67 37.71 37.71 37.71 37.52
46.30 46.17 45.98 45.89 45.80 45.67 45.54 45.40 45.13 45.04 44.81 44.67 44.53 44.48 44.57 44.67 44.76 44.85 45.03 45.08 44.99 44.80 44.76 44.76 44.80 44.62 44.44 44.31 44.22 44.27 44.18 44.09 44.13 44.35 44.58 44.85 44.90 44.85 44.89 45.20 45.79 46.25 46.52 46.30 45.86 45.46 44.85 44.42 43.85 43.15 42.03 40.36 38.93 38.41 38.27 38.09 38.01 37.87 37.73 37.77 37.59 37.49 37.31 37.21 37.02 36.97 36.93 36.93 36.93
45.86 45.77 45.59 45.45 45.41 45.23 45.05 44.96 44.83 44.55 44.41 44.27 44.31 44.35 44.44 44.57 44.75 44.89 45.12 45.12 44.76 44.58 44.44 44.44 44.35 44.17 43.99 43.90 43.81 43.86 43.95 43.95 43.95 44.08 44.26 44.62 44.62 44.62 44.67 44.98 45.34 45.57 45.80 45.77 45.33 44.89 44.42 43.94 43.37 42.48 41.09 38.98 38.03 37.75 37.75 37.62 37.67 37.64 37.52 37.47 37.33 37.14 36.96 36.86 36.84 36.70 36.57 36.66 36.98
45.69 45.55 45.38 45.19 45.01 44.83 44.83 44.65 44.33 44.19 44.00 44.08 44.17 44.35 44.44 44.62 44.71 44.84 44.98 44.94 44.62 44.35 44.13 44.08 43.85 43.81 43.72 43.72 43.67 43.72 43.81 43.95 43.91 43.77 43.81 43.94 44.17 44.31 44.31 44.48 44.66 44.85 45.04 45.24 44.94 44.55 44.11 43.59 42.98 42.04 40.50 38.25 37.35 37.29 37.34 37.26 37.08 37.04 37.05 36.93 36.66 36.49 36.35 36.14 36.11 35.98 36.08 36.72 38.01
45.86 45.55 45.29 44.93 44.70 44.51 44.46 44.24 44.06 43.96 43.95 44.04 44.12 44.21 44.35 44.39 44.44 44.57 44.76 44.80 44.49 44.22 43.90 43.63 43.49 43.58 43.67 43.68 43.54 43.45 43.45 43.63 43.63 43.50 43.32 43.22 43.49 43.67 43.72 43.85 44.03 44.22 44.55 44.84 44.67 44.37 43.98 43.46 42.98 42.17 40.81 38.42 36.90 36.57 36.70 36.53 36.12 35.99 35.90 35.90 35.77 35.65 35.47 35.17 34.98 34.89 35.26 36.41 39.49
46.30 45.81 45.37 44.92 44.56 44.42 44.19 43.96 43.92 43.92 43.96 43.96 43.86 43.85 43.90 43.94 44.21 44.44 44.53 44.44 44.31 43.95 43.67 43.36 43.31 43.49 43.63 43.63 43.36 43.08 42.94 42.94 42.91 42.95 42.86 42.59 42.77 42.91 43.04 43.40 43.49 43.77 44.19 44.53 44.54 44.28 43.93 43.50 43.06 42.39 40.98 38.17 36.29 35.83 35.88 35.61 35.25 34.81 34.58 34.53 34.72 34.73 34.59 34.18 33.89 33.89 34.25 35.18 38.50
46.88 46.25 45.67 45.09 44.87 44.56 44.24 44.01 43.96 43.92 43.97 43.92 43.73 43.68 43.63 43.76 43.90 43.99 44.03 44.03 43.85 43.72 43.54 43.31 43.26 43.31 43.40 43.40 43.08 42.81 42.45 42.18 41.95 41.96 42.09 42.05 42.09 42.14 42.32 42.27 42.27 42.73 43.37 44.12 44.44 44.32 44.02 43.59 43.15 42.57 41.20 38.35 36.15 35.37 35.28 34.84 34.58 34.04 33.44 33.11 33.31 33.59 33.73 33.32 33.04 33.11 33.25 33.48 34.76
MSLP
1004.60 1004.80 1004.96 1005.16 1005.36 1005.52 1005.64 1005.68 1005.72 1005.80 1006.00 1006.24 1006.48 1006.68 1006.96 1007.24 1007.52 1007.80 1007.96 1008.16 1008.36 1008.52 1008.64 1008.80 1008.96 1009.12 1009.36 1009.52 1009.68 1009.88 1010.04 1010.16 1010.28 1010.44 1010.64 1010.84 1011.08 1011.28 1011.48 1011.68 1011.92 1012.16 1012.36 1012.60 1012.76 1012.88 1013.04 1013.20 1013.40 1013.64 1013.84 1013.96 1014.08 1014.24 1014.36 1014.52 1014.64 1014.80 1015.00 1015.12 1015.24 1015.36 1015.52 1015.64 1015.80 1015.88 1016.00 1016.12 1016.28
1004.56 1004.76 1004.96 1005.16 1005.36 1005.52 1005.64 1005.72 1005.76 1005.84 1005.96 1006.12 1006.28 1006.52 1006.72 1007.00 1007.32 1007.56 1007.76 1007.96 1008.08 1008.32 1008.56 1008.80 1008.96 1009.16 1009.36 1009.52 1009.64 1009.80 1009.96 1010.08 1010.24 1010.40 1010.64 1010.84 1011.08 1011.24 1011.44 1011.64 1011.88 1012.12 1012.36 1012.56 1012.72 1012.92 1013.08 1013.24 1013.36 1013.60 1013.80 1013.92 1014.04 1014.20 1014.36 1014.48 1014.60 1014.76 1014.96 1015.08 1015.24 1015.36 1015.48 1015.56 1015.68 1015.80 1015.96 1016.12 1016.32
1004.52 1004.68 1004.88 1005.08 1005.32 1005.48 1005.56 1005.68 1005.80 1005.84 1005.96 1006.12 1006.24 1006.44 1006.68 1006.96 1007.16 1007.40 1007.64 1007.84 1008.00 1008.24 1008.56 1008.88 1009.08 1009.24 1009.40 1009.56 1009.68 1009.80 1009.96 1010.04 1010.20 1010.36 1010.64 1010.92 1011.08 1011.24 1011.44 1011.64 1011.88 1012.12 1012.36 1012.56 1012.72 1012.88 1013.08 1013.24 1013.36 1013.52 1013.68 1013.84 1013.96 1014.12 1014.28 1014.40 1014.52 1014.68 1014.88 1015.04 1015.16 1015.28 1015.40 1015.52 1015.64 1015.76 1015.96 1016.20 1016.36
1004.40 1004.60 1004.80 1005.08 1005.24 1005.36 1005.44 1005.60 1005.80 1005.92 1006.00 1006.16 1006.36 1006.52 1006.76 1006.96 1007.24 1007.52 1007.72 1007.88 1008.08 1008.36 1008.68 1008.96 1009.20 1009.36 1009.48 1009.60 1009.72 1009.84 1009.96 1010.04 1010.16 1010.40 1010.68 1010.92 1011.08 1011.24 1011.36 1011.64 1011.88 1012.12 1012.36 1012.56 1012.76 1012.92 1013.08 1013.24 1013.40 1013.56 1013.72 1013.84 1013.96 1014.08 1014.20 1014.36 1014.52 1014.68 1014.84 1014.96 1015.08 1015.20 1015.36 1015.48 1015.64 1015.80 1016.00 1016.24 1016.44
1004.36 1004.56 1004.76 1005.00 1005.16 1005.28 1005.36 1005.60 1005.80 1005.96 1006.08 1006.24 1006.40 1006.64 1006.88 1007.12 1007.36 1007.60 1007.80 1008.04 1008.24 1008.44 1008.68 1008.96 1009.16 1009.36 1009.52 1009.64 1009.84 1010.04 1010.12 1010.16 1010.36 1010.56 1010.72 1010.80 1010.96 1011.12 1011.36 1011.64 1011.88 1012.12 1012.36 1012.56 1012.76 1012.96 1013.16 1013.36 1013.52 1013.72 1013.80 1013.92 1014.00 1014.12 1014.24 1014.36 1014.52 1014.76 1014.92 1015.04 1015.08 1015.12 1015.24 1015.40 1015.60 1015.80 1016.08 1016.36 1016.52
1004.36 1004.60 1004.80 1005.00 1005.16 1005.32 1005.48 1005.68 1005.84 1005.96 1006.08 1006.28 1006.48 1006.72 1006.96 1007.24 1007.48 1007.68 1007.92 1008.12 1008.32 1008.52 1008.76 1009.00 1009.24 1009.40 1009.60 1009.80 1010.08 1010.28 1010.36 1010.48 1010.68 1010.76 1010.72 1010.72 1010.84 1011.08 1011.40 1011.68 1011.92 1012.16 1012.40 1012.68 1012.84 1013.08 1013.28 1013.48 1013.68 1013.88 1014.00 1014.08 1014.12 1014.24 1014.32 1014.44 1014.64 1014.84 1015.04 1015.16 1015.12 1015.08 1015.16 1015.36 1015.52 1015.80 1016.08 1016.36 1016.60
1004.36 1004.68 1004.84 1004.96 1005.12 1005.32 1005.52 1005.80 1005.96 1006.00 1006.08 1006.32 1006.52 1006.80 1007.08 1007.32 1007.52 1007.76 1007.96 1008.12 1008.36 1008.60 1008.80 1009.08 1009.32 1009.52 1009.72 1009.96 1010.24 1010.52 1010.68 1010.76 1010.88 1010.76 1010.56 1010.60 1010.80 1011.12 1011.44 1011.76 1012.00 1012.24 1012.48 1012.72 1012.96 1013.24 1013.40 1013.56 1013.80 1014.00 1014.12 1014.20 1014.28 1014.36 1014.44 1014.52 1014.72 1014.96 1015.12 1015.24 1015.24 1015.16 1015.16 1015.28 1015.52 1015.80 1016.08 1016.44 1016.68
1004.44 1004.68 1004.80 1004.96 1005.08 1005.32 1005.52 1005.80 1005.92 1006.04 1006.20 1006.36 1006.60 1006.84 1007.08 1007.36 1007.56 1007.80 1008.00 1008.20 1008.40 1008.64 1008.80 1009.08 1009.36 1009.60 1009.80 1010.00 1010.24 1010.52 1010.76 1010.96 1010.96 1010.72 1010.52 1010.56 1010.84 1011.20 1011.52 1011.80 1012.08 1012.32 1012.60 1012.80 1013.04 1013.24 1013.48 1013.64 1013.96 1014.16 1014.28 1014.32 1014.40 1014.52 1014.60 1014.68 1014.84 1015.04 1015.16 1015.28 1015.24 1015.20 1015.16 1015.24 1015.48 1015.80 1016.16 1016.52 1016.72
1004.48 1004.68 1004.80 1005.00 1005.20 1005.40 1005.60 1005.76 1005.88 1006.08 1006.32 1006.56 1006.76 1006.96 1007.20 1007.40 1007.64 1007.84 1008.08 1008.36 1008.56 1008.72 1008.88 1009.08 1009.32 1009.60 1009.84 1010.08 1010.28 1010.48 1010.72 1010.96 1010.96 1010.80 1010.60 1010.68 1010.96 1011.24 1011.56 1011.88 1012.12 1012.40 1012.68 1012.88 1013.08 1013.28 1013.52 1013.84 1014.16 1014.36 1014.44 1014.48 1014.52 1014.68 1014.80 1014.92 1014.96 1015.08 1015.24 1015.28 1015.24 1015.20 1015.20 1015.28 1015.52 1015.84 1016.24 1016.60 1016.84
1004.48 1004.68 1004.84 1005.04 1005.28 1005.48 1005.64 1005.80 1006.00 1006.28 1006.60 1006.88 1007.08 1007.24 1007.40 1007.56 1007.72 1007.96 1008.24 1008.52 1008.80 1009.00 1009.08 1009.16 1009.36 1009.56 1009.80 1010.04 1010.24 1010.48 1010.68 1010.92 1010.92 1010.80 1010.72 1010.80 1011.04 1011.36 1011.64 1011.96 1012.20 1012.44 1012.68 1012.88 1013.08 1013.36 1013.64 1014.00 1014.24 1014.40 1014.48 1014.52 1014.68 1014.84 1015.04 1015.08 1015.12 1015.16 1015.24 1015.24 1015.24 1015.24 1015.28 1015.40 1015.56 1015.88 1016.28 1016.68 1017.00
1004.40 1004.64 1004.84 1005.08 1005.32 1005.56 1005.76 1005.96 1006.20 1006.52 1006.84 1007.08 1007.28 1007.48 1007.64 1007.80 1007.88 1008.08 1008.36 1008.80 1009.16 1009.32 1009.32 1009.32 1009.36 1009.44 1009.64 1009.88 1010.12 1010.36 1010.64 1010.80 1010.92 1010.88 1010.84 1010.92 1011.16 1011.48 1011.80 1012.04 1012.24 1012.44 1012.68 1012.88 1013.16 1013.48 1013.76 1014.00 1014.20 1014.36 1014.44 1014.56 1014.76 1014.96 1015.08 1015.16 1015.16 1015.16 1015.20 1015.20 1015.24 1015.28 1015.44 1015.60 1015.72 1015.96 1016.28 1016.68 1017.04
1004.36 1004.68 1004.92 1005.12 1005.36 1005.60 1005.80 1006.00 1006.24 1006.60 1006.92 1007.20 1007.36 1007.56 1007.76 1007.88 1007.96 1008.12 1008.48 1008.96 1009.24 1009.44 1009.52 1009.48 1009.40 1009.36 1009.52 1009.80 1010.04 1010.32 1010.56 1010.76 1010.80 1010.80 1010.84 1011.04 1011.32 1011.64 1011.96 1012.20 1012.36 1012.56 1012.76 1013.00 1013.32 1013.56 1013.80 1013.96 1014.08 1014.20 1014.36 1014.52 1014.80 1014.96 1015.08 1015.08 1015.08 1015.08 1015.08 1015.16 1015.24 1015.36 1015.52 1015.68 1015.88 1016.08 1016.36 1016.72 1017.08
1004.36 1004.68 1004.96 1005.20 1005.44 1005.64 1005.80 1005.96 1006.24 1006.52 1006.84 1007.12 1007.36 1007.56 1007.72 1007.84 1007.96 1008.12 1008.44 1008.88 1009.20 1009.36 1009.48 1009.52 1009.44 1009.36 1009.44 1009.64 1009.88 1010.08 1010.32 1010.52 1010.60 1010.68 1010.88 1011.16 1011.48 1011.80 1012.08 1012.32 1012.52 1012.76 1012.96 1013.24 1013.40 1013.56 1013.68 1013.76 1013.84 1013.96 1014.20 1014.48 1014.72 1014.88 1014.96 1014.92 1014.88 1014.92 1014.96 1015.08 1015.20 1015.36 1015.52 1015.72 1015.92 1016.12 1016.44 1016.84 1017.24
1004.40 1004.72 1004.96 1005.24 1005.48 1005.64 1005.80 1005.96 1006.24 1006.56 1006.84 1007.12 1007.36 1007.56 1007.68 1007.80 1007.96 1008.16 1008.52 1008.88 1009.08 1009.16 1009.24 1009.32 1009.36 1009.32 1009.32 1009.36 1009.52 1009.76 1009.96 1010.24 1010.48 1010.72 1011.00 1011.32 1011.60 1011.84 1012.12 1012.36 1012.64 1012.88 1013.16 1013.36 1013.44 1013.52 1013.52 1013.60 1013.64 1013.80 1013.96 1014.28 1014.52 1014.72 1014.80 1014.72 1014.68 1014.68 1014.80 1014.96 1015.12 1015.28 1015.40 1015.64 1015.84 1016.08 1016.48 1016.96 1017.36
1004.52 1004.80 1005.08 1005.24 1005.48 1005.68 1005.88 1006.08 1006.36 1006.64 1006.88 1007.12 1007.36 1007.56 1007.72 1007.92 1008.08 1008.28 1008.60 1008.92 1009.00 1009.00 1009.04 1009.08 1009.24 1009.28 1009.32 1009.36 1009.48 1009.68 1009.96 1010.20 1010.48 1010.80 1011.08 1011.40 1011.64 1011.88 1012.12 1012.40 1012.68 1012.96 1013.24 1013.40 1013.52 1013.52 1013.48 1013.48 1013.52 1013.64 1013.80 1014.04 1014.28 1014.48 1014.56 1014.52 1014.52 1014.52 1014.56 1014.72 1014.88 1015.08 1015.24 1015.44 1015.64 1015.96 1016.36 1016.84 1017.32
1004.60 1004.88 1005.12 1005.32 1005.52 1005.72 1005.96 1006.24 1006.44 1006.68 1006.96 1007.16 1007.36 1007.56 1007.76 1007.96 1008.12 1008.36 1008.64 1008.80 1008.88 1008.92 1008.96 1009.08 1009.20 1009.32 1009.44 1009.56 1009.68 1009.92 1010.12 1010.36 1010.60 1010.92 1011.20 1011.44 1011.68 1011.92 1012.16 1012.48 1012.80 1013.04 1013.24 1013.40 1013.52 1013.52 1013.52 1013.48 1013.52 1013.60 1013.72 1013.92 1014.08 1014.24 1014.36 1014.36 1014.36 1014.36 1014.36 1014.52 1014.68 1014.84 1015.08 1015.24 1015.48 1015.76 1016.12 1016.56 1017.04
1004.68 1004.96 1005.12 1005.32 1005.52 1005.80 1006.04 1006.24 1006.52 1006.72 1006.96 1007.16 1007.36 1007.52 1007.72 1007.92 1008.16 1008.36 1008.56 1008.68 1008.76 1008.84 1008.96 1009.08 1009.20 1009.36 1009.56 1009.76 1009.96 1010.08 1010.32 1010.52 1010.76 1010.96 1011.24 1011.44 1011.68 1011.96 1012.20 1012.48 1012.76 1012.96 1013.16 1013.32 1013.44 1013.52 1013.56 1013.56 1013.60 1013.64 1013.76 1013.92 1014.04 1014.20 1014.28 1014.36 1014.36 1014.36 1014.36 1014.48 1014.64 1014.84 1015.04 1015.24 1015.48 1015.72 1016.04 1016.36 1016.76
1004.84 1005.04 1005.24 1005.40 1005.64 1005.84 1006.08 1006.28 1006.52 1006.72 1006.92 1007.12 1007.32 1007.52 1007.72 1007.88 1008.08 1008.32 1008.48 1008.56 1008.68 1008.72 1008.88 1009.04 1009.24 1009.40 1009.64 1009.88 1010.08 1010.24 1010.44 1010.64 1010.84 1011.04 1011.24 1011.44 1011.68 1011.92 1012.16 1012.40 1012.68 1012.84 1013.00 1013.16 1013.32 1013.44 1013.52 1013.60 1013.64 1013.72 1013.80 1013.92 1014.04 1014.16 1014.28 1014.40 1014.48 1014.52 1014.52 1014.60 1014.76 1014.96 1015.20 1015.40 1015.64 1015.92 1016.20 1016.48 1016.72
1005.00 1005.20 1005.36 1005.56 1005.72 1005.92 1006.08 1006.24 1006.48 1006.72 1006.92 1007.08 1007.32 1007.52 1007.76 1007.92 1008.08 1008.24 1008.44 1008.56 1008.64 1008.68 1008.80 1009.00 1009.24 1009.44 1009.64 1009.84 1010.08 1010.28 1010.48 1010.68 1010.84 1011.04 1011.24 1011.44 1011.64 1011.88 1012.12 1012.36 1012.56 1012.72 1012.88 1013.00 1013.12 1013.24 1013.40 1013.52 1013.60 1013.64 1013.76 1013.88 1014.04 1014.20 1014.32 1014.48 1014.68 1014.80 1014.84 1014.88 1014.96 1015.16 1015.36 1015.64 1015.88 1016.12 1016.36 1016.64 1016.80
1005.12 1005.36 1005.56 1005.76 1005.92 1006.04 1006.20 1006.32 1006.52 1006.76 1006.96 1007.16 1007.36 1007.56 1007.80 1008.08 1008.24 1008.36 1008.52 1008.64 1008.72 1008.80 1008.88 1009.08 1009.24 1009.44 1009.64 1009.80 1010.04 1010.24 1010.44 1010.64 1010.80 1011.04 1011.24 1011.44 1011.64 1011.84 1012.08 1012.28 1012.48 1012.68 1012.80 1012.92 1013.04 1013.20 1013.32 1013.40 1013.52 1013.60 1013.68 1013.84 1014.00 1014.16 1014.36 1014.56 1014.84 1015.04 1015.12 1015.16 1015.24 1015.36 1015.60 1015.80 1016.08 1016.28 1016.48 1016.68 1016.80
1005.40 1005.64 1005.80 1006.00 1006.12 1006.24 1006.36 1006.52 1006.68 1006.88 1007.08 1007.24 1007.44 1007.64 1007.92 1008.20 1008.44 1008.64 1008.72 1008.80 1008.88 1008.96 1009.08 1009.20 1009.36 1009.52 1009.68 1009.88 1010.04 1010.24 1010.48 1010.68 1010.84 1011.08 1011.24 1011.44 1011.64 1011.80 1012.00 1012.24 1012.44 1012.64 1012.76 1012.92 1013.04 1013.12 1013.24 1013.36 1013.48 1013.56 1013.68 1013.80 1013.96 1014.12 1014.32 1014.56 1014.92 1015.12 1015.24 1015.36 1015.48 1015.60 1015.80 1015.96 1016.20 1016.36 1016.48 1016.68 1016.84
1005.84 1006.00 1006.16 1006.28 1006.40 1006.52 1006.68 1006.80 1006.96 1007.08 1007.24 1007.44 1007.60 1007.80 1008.04 1008.28 1008.60 1008.84 1008.96 1009.08 1009.12 1009.24 1009.36 1009.52 1009.64 1009.76 1009.84 1010.00 1010.12 1010.32 1010.52 1010.80 1010.96 1011.12 1011.36 1011.52 1011.72 1011.88 1012.04 1012.24 1012.44 1012.64 1012.80 1012.92 1013.04 1013.16 1013.28 1013.44 1013.52 1013.60 1013.68 1013.80 1013.96 1014.08 1014.24 1014.48 1014.80 1015.08 1015.36 1015.52 1015.60 1015.72 1015.88 1016.08 1016.24 1016.36 1016.52 1016.68 1016.96
1006.32 1006.40 1006.52 1006.68 1006.76 1006.84 1006.96 1007.08 1007.16 1007.28 1007.44 1007.60 1007.76 1007.96 1008.20 1008.44 1008.72 1008.96 1009.08 1009.24 1009.36 1009.52 1009.68 1009.84 1009.96 1010.08 1010.16 1010.24 1010.36 1010.52 1010.68 1010.88 1011.08 1011.28 1011.48 1011.64 1011.84 1012.00 1012.16 1012.28 1012.44 1012.60 1012.80 1012.92 1013.08 1013.24 1013.36 1013.56 1013.64 1013.76 1013.80 1013.92 1014.04 1014.20 1014.32 1014.40 1014.60 1014.96 1015.28 1015.52 1015.64 1015.80 1015.96 1016.20 1016.36 1016.44 1016.60 1016.80 1017.08
1006.76 1006.84 1006.96 1007.04 1007.08 1007.20 1007.24 1007.32 1007.40 1007.52 1007.64 1007.76 1007.96 1008.08 1008.32 1008.56 1008.80 1009.04 1009.24 1009.40 1009.60 1009.80 1009.96 1010.20 1010.32 1010.40 1010.52 1010.56 1010.64 1010.72 1010.84 1011.00 1011.24 1011.44 1011.64 1011.80 1011.96 1012.16 1012.28 1012.36 1012.52 1012.64 1012.76 1012.96 1013.08 1013.24 1013.40 1013.60 1013.80 1013.92 1013.96 1014.08 1014.20 1014.32 1014.40 1014.48 1014.52 1014.80 1015.12 1015.48 1015.64 1015.80 1016.04 1016.32 1016.48 1016.56 1016.72 1016.96 1017.20
1007.16 1007.24 1007.32 1007.40 1007.44 1007.52 1007.56 1007.64 1007.72 1007.80 1007.92 1008.00 1008.16 1008.32 1008.52 1008.72 1008.96 1009.16 1009.40 1009.64 1009.88 1010.08 1010.24 1010.40 1010.56 1010.64 1010.68 1010.80 1010.88 1010.96 1011.08 1011.12 1011.28 1011.48 1011.68 1011.92 1012.08 1012.24 1012.36 1012.52 1012.64 1012.72 1012.84 1013.00 1013.16 1013.32 1013.52 1013.64 1013.80 1013.96 1014.08 1014.20 1014.36 1014.48 1014.56 1014.64 1014.64 1014.80 1015.04 1015.28 1015.52 1015.80 1016.12 1016.44 1016.64 1016.72 1016.84 1017.00 1017.24
1007.48 1007.56 1007.64 1007.72 1007.80 1007.84 1007.92 1007.96 1008.04 1008.12 1008.20 1008.28 1008.40 1008.56 1008.80 1008.96 1009.20 1009.40 1009.64 1009.88 1010.08 1010.24 1010.40 1010.52 1010.68 1010.76 1010.84 1010.96 1011.08 1011.16 1011.24 1011.24 1011.36 1011.52 1011.72 1011.96 1012.20 1012.36 1012.52 1012.64 1012.76 1012.84 1012.96 1013.12 1013.32 1013.48 1013.64 1013.80 1013.92 1014.00 1014.12 1014.24 1014.40 1014.60 1014.76 1014.80 1014.80 1014.92 1015.04 1015.24 1015.52 1015.80 1016.16 1016.52 1016.68 1016.84 1016.96 1017.08 1017.32
1007.80 1007.92 1007.96 1008.04 1008.08 1008.16 1008.24 1008.28 1008.36 1008.40 1008.52 1008.60 1008.68 1008.84 1009.00 1009.16 1009.36 1009.60 1009.80 1010.00 1010.24 1010.36 1010.48 1010.60 1010.76 1010.88 1010.96 1011.08 1011.16 1011.24 1011.32 1011.36 1011.52 1011.64 1011.80 1012.08 1012.28 1012.52 1012.68 1012.80 1012.92 1013.04 1013.20 1013.32 1013.48 1013.64 1013.80 1013.96 1014.08 1014.16 1014.24 1014.32 1014.52 1014.68 1014.80 1014.96 1014.96 1015.00 1015.12 1015.36 1015.64 1015.96 1016.24 1016.52 1016.68 1016.84 1017.04 1017.24 1017.44
1008.08 1008.20 1008.24 1008.28 1008.36 1008.48 1008.56 1008.60 1008.68 1008.76 1008.80 1008.92 1009.00 1009.08 1009.24 1009.36 1009.52 1009.76 1009.96 1010.12 1010.28 1010.40 1010.56 1010.72 1010.84 1010.96 1011.08 1011.20 1011.32 1011.36 1011.44 1011.52 1011.68 1011.84 1012.04 1012.24 1012.40 1012.60 1012.76 1012.92 1013.04 1013.16 1013.32 1013.44 1013.64 1013.80 1014.00 1014.12 1014.24 1014.36 1014.40 1014.52 1014.68 1014.80 1014.84 1014.96 1015.00 1015.12 1015.28 1015.52 1015.80 1016.12 1016.36 1016.52 1016.68 1016.84 1017.08 1017.32 1017.52
1008.40 1008.44 1008.52 1008.64 1008.72 1008.80 1008.88 1008.96 1009.00 1009.08 1009.12 1009.24 1009.28 1009.36 1009.44 1009.60 1009.72 1009.92 1010.08 1010.24 1010.36 1010.52 1010.68 1010.84 1010.96 1011.08 1011.20 1011.36 1011.48 1011.56 1011.64 1011.76 1011.92 1012.08 1012.24 1012.40 1012.60 1012.76 1012.88 1013.04 1013.20 1013.36 1013.48 1013.64 1013.80 1014.00 1014.16 1014.36 1014.48 1014.52 1014.60 1014.68 1014.80 1014.84 1014.92 1015.00 1015.08 1015.28 1015.52 1015.76 1016.00 1016.24 1016.36 1016.56 1016.72 1016.92 1017.12 1017.36 1017.60
1008.68 1008.72 1008.80 1008.88 1008.96 1009.08 1009.16 1009.24 1009.24 1009.32 1009.36 1009.44 1009.48 1009.52 1009.64 1009.72 1009.84 1010.00 1010.20 1010.36 1010.52 1010.68 1010.80 1010.92 1011.04 1011.20 1011.36 1011.52 1011.64 1011.76 1011.88 1012.00 1012.12 1012.24 1012.36 1012.52 1012.68 1012.84 1013.00 1013.16 1013.32 1013.48 1013.64 1013.80 1013.96 1014.16 1014.32 1014.48 1014.60 1014.68 1014.72 1014.80 1014.80 1014.92 1015.04 1015.16 1015.32 1015.52 1015.76 1015.96 1016.12 1016.24 1016.36 1016.56 1016.76 1016.96 1017.20 1017.44 1017.64
1008.84 1008.92 1009.00 1009.08 1009.16 1009.28 1009.36 1009.44 1009.52 1009.52 1009.56 1009.60 1009.64 1009.68 1009.80 1009.88 1010.00 1010.16 1010.32 1010.48 1010.64 1010.80 1010.96 1011.08 1011.20 1011.32 1011.52 1011.64 1011.80 1011.96 1012.08 1012.20 1012.28 1012.36 1012.48 1012.60 1012.76 1012.96 1013.12 1013.28 1013.48 1013.64 1013.80 1013.96 1014.12 1014.32 1014.48 1014.60 1014.68 1014.80 1014.84 1014.92 1014.96 1015.08 1015.24 1015.40 1015.60 1015.80 1015.96 1016.08 1016.24 1016.36 1016.44 1016.64 1016.84 1017.04 1017.24 1017.44 1017.64
1009.04 1009.08 1009.16 1009.24 1009.36 1009.48 1009.56 1009.64 1009.68 1009.72 1009.76 1009.80 1009.84 1009.92 1010.04 1010.12 1010.24 1010.36 1010.52 1010.64 1010.80 1010.96 1011.12 1011.24 1011.36 1011.52 1011.64 1011.80 1011.96 1012.08 1012.24 1012.36 1012.44 1012.52 1012.64 1012.76 1012.92 1013.08 1013.24 1013.44 1013.64 1013.80 1014.00 1014.12 1014.32 1014.52 1014.68 1014.76 1014.84 1014.96 1015.00 1015.08 1015.24 1015.36 1015.52 1015.68 1015.84 1015.96 1016.08 1016.24 1016.36 1016.48 1016.64 1016.76 1016.96 1017.08 1017.24 1017.40 1017.52
1009.28 1009.32 1009.36 1009.48 1009.56 1009.68 1009.80 1009.88 1009.92 1009.96 1010.00 1010.08 1010.12 1010.20 1010.28 1010.40 1010.48 1010.56 1010.68 1010.84 1010.96 1011.12 1011.28 1011.40 1011.52 1011.64 1011.80 1011.96 1012.16 1012.28 1012.40 1012.52 1012.60 1012.68 1012.80 1012.96 1013.08 1013.24 1013.48 1013.64 1013.84 1014.00 1014.16 1014.36 1014.52 1014.64 1014.80 1014.88 1015.00 1015.08 1015.24 1015.36 1015.48 1015.64 1015.76 1015.88 1016.04 1016.12 1016.24 1016.36 1016.52 1016.64 1016.76 1016.88 1017.00 1017.16 1017.28 1017.40 1017.48
1009.52 1009.56 1009.60 1009.64 1009.80 1009.92 1010.00 1010.08 1010.16 1010.20 1010.28 1010.36 1010.44 1010.52 1010.60 1010.68 1010.76 1010.84 1010.96 1011.08 1011.24 1011.36 1011.48 1011.60 1011.72 1011.88 1012.04 1012.16 1012.28 1012.40 1012.52 1012.68 1012.80 1012.88 1013.00 1013.12 1013.24 1013.44 1013.64 1013.88 1014.08 1014.24 1014.36 1014.52 1014.64 1014.76 1014.92 1015.00 1015.12 1015.24 1015.36 1015.52 1015.64 1015.80 1015.92 1016.00 1016.12 1016.24 1016.40 1016.52 1016.64 1016.72 1016.84 1016.96 1017.08 1017.16 1017.28 1017.36 1017.48
1009.80 1009.80 1009.84 1009.96 1010.00 1010.08 1010.20 1010.28 1010.36 1010.44 1010.52 1010.68 1010.76 1010.80 1010.92 1010.96 1011.04 1011.16 1011.24 1011.36 1011.44 1011.56 1011.72 1011.84 1011.96 1012.08 1012.24 1012.36 1012.48 1012.56 1012.68 1012.84 1012.96 1013.08 1013.24 1013.32 1013.48 1013.64 1013.84 1014.08 1014.24 1014.36 1014.52 1014.60 1014.76 1014.88 1014.96 1015.08 1015.24 1015.36 1015.48 1015.60 1015.76 1015.88 1015.96 1016.08 1016.24 1016.36 1016.48 1016.56 1016.68 1016.80 1016.96 1017.04 1017.12 1017.24 1017.32 1017.36 1017.48
1010.04 1010.08 1010.12 1010.20 1010.24 1010.36 1010.44 1010.52 1010.60 1010.68 1010.80 1010.92 1011.00 1011.08 1011.20 1011.24 1011.36 1011.48 1011.56 1011.64 1011.68 1011.80 1011.96 1012.08 1012.24 1012.36 1012.48 1012.60 1012.72 1012.80 1012.92 1013.04 1013.16 1013.32 1013.44 1013.52 1013.64 1013.84 1014.04 1014.20 1014.36 1014.48 1014.60 1014.68 1014.80 1014.96 1015.04 1015.16 1015.28 1015.36 1015.52 1015.64 1015.80 1015.92 1016.00 1016.12 1016.28 1016.40 1016.52 1016.64 1016.76 1016.84 1016.96 1017.08 1017.16 1017.24 1017.32 1017.40 1017.52
1010.32 1010.36 1010.40 1010.48 1010.56 1010.68 1010.72 1010.80 1010.84 1010.96 1011.04 1011.16 1011.24 1011.36 1011.44 1011.52 1011.64 1011.76 1011.84 1011.92 1011.96 1012.08 1012.20 1012.36 1012.48 1012.60 1012.68 1012.80 1012.96 1013.08 1013.16 1013.24 1013.36 1013.52 1013.60 1013.68 1013.80 1013.96 1014.08 1014.24 1014.40 1014.56 1014.68 1014.80 1014.84 1014.96 1015.08 1015.20 1015.32 1015.40 1015.52 1015.68 1015.84 1015.96 1016.04 1016.16 1016.28 1016.44 1016.52 1016.68 1016.80 1016.88 1016.96 1017.08 1017.16 1017.24 1017.36 1017.44 1017.52
1010.64 1010.64 1010.68 1010.72 1010.84 1010.96 1011.00 1011.08 1011.12 1011.24 1011.32 1011.40 1011.52 1011.60 1011.64 1011.76 1011.88 1012.00 1012.08 1012.12 1012.20 1012.32 1012.44 1012.60 1012.76 1012.84 1012.96 1013.00 1013.12 1013.28 1013.36 1013.48 1013.60 1013.68 1013.80 1013.88 1013.96 1014.04 1014.16 1014.28 1014.48 1014.64 1014.80 1014.84 1014.96 1015.04 1015.16 1015.24 1015.36 1015.44 1015.56 1015.72 1015.88 1016.00 1016.12 1016.24 1016.36 1016.52 1016.64 1016.72 1016.84 1016.96 1017.04 1017.12 1017.24 1017.32 1017.40 1017.52 1017.56
1010.92 1010.96 1010.96 1011.04 1011.12 1011.24 1011.28 1011.36 1011.44 1011.52 1011.60 1011.68 1011.80 1011.88 1011.96 1012.00 1012.12 1012.24 1012.28 1012.36 1012.40 1012.52 1012.68 1012.80 1012.96 1013.08 1013.16 1013.24 1013.36 1013.44 1013.56 1013.72 1013.84 1013.92 1014.00 1014.08 1014.08 1014.16 1014.24 1014.36 1014.56 1014.72 1014.84 1014.92 1015.00 1015.08 1015.24 1015.36 1015.44 1015.52 1015.64 1015.80 1015.96 1016.08 1016.16 1016.32 1016.44 1016.56 1016.68 1016.80 1016.92 1017.00 1017.08 1017.20 1017.28 1017.40 1017.52 1017.60 1017.64
1011.20 1011.20 1011.24 1011.28 1011.36 1011.48 1011.52 1011.64 1011.72 1011.80 1011.88 1011.96 1012.08 1012.16 1012.24 1012.28 1012.36 1012.48 1012.52 1012.60 1012.68 1012.76 1012.84 1012.96 1013.12 1013.24 1013.36 1013.44 1013.52 1013.60 1013.72 1013.92 1014.04 1014.08 1014.16 1014.24 1014.24 1014.32 1014.36 1014.52 1014.68 1014.80 1014.96 1015.00 1015.08 1015.16 1015.28 1015.36 1015.52 1015.60 1015.72 1015.88 1016.00 1016.08 1016.24 1016.36 1016.52 1016.64 1016.76 1016.88 1016.96 1017.08 1017.20 1017.28 1017.36 1017.52 1017.64 1017.76 1017.76
1011.36 1011.40 1011.48 1011.52 1011.64 1011.68 1011.80 1011.84 1011.96 1012.08 1012.12 1012.24 1012.32 1012.36 1012.48 1012.52 1012.64 1012.68 1012.72 1012.76 1012.84 1012.96 1013.00 1013.12 1013.24 1013.36 1013.48 1013.52 1013.56 1013.68 1013.84 1014.00 1014.16 1014.24 1014.32 1014.36 1014.40 1014.48 1014.56 1014.68 1014.80 1014.92 1015.00 1015.08 1015.16 1015.24 1015.32 1015.44 1015.52 1015.64 1015.80 1015.96 1016.04 1016.12 1016.24 1016.36 1016.52 1016.68 1016.84 1016.96 1017.04 1017.12 1017.28 1017.44 1017.52 1017.64 1017.72 1017.84 1017.92
Wind_Speed
9 8 8 7 7 6 5 4 4 5 6 6 7 7 7 8 7 7 6 6 6 5 5 5 6 6 7 9 10 11 11 11 12 12 12 13 13 13 12 12 11 11 10 9 9 8 7 7 7 5 4 4 5 5 4 4 4 5 4 4 4 4 4 5 5 5 5 4 3
10 9 8 7 6 5 5 4 4 4 5 5 6 6 7 6 6 6 6 6 6 5 5 5 6 7 9 11 11 12 12 13 13 13 13 13 13 13 13 12 11 11 10 10 9 7 7 7 6 5 4 4 4 4 4 4 4 5 5 5 4 3 4 4 5 5 5 4 3
11 10 9 8 7 6 5 5 5 5 6 5 5 6 6 6 6 6 6 6 7 7 6 5 6 8 10 11 11 11 12 13 13 13 13 12 12 13 12 12 11 11 10 9 8 7 6 6 5 4 4 4 4 4 4 4 4 4 5 5 4 3 3 3 4 4 4 3 4
11 11 11 10 10 8 7 6 6 6 6 6 6 6 6 6 5 5 6 6 8 8 7 6 6 7 9 10 10 10 10 12 13 13 12 12 12 12 12 12 11 10 9 9 8 7 7 6 4 4 4 4 5 4 4 4 4 3 3 4 3 4 4 3 4 4 4 3 3
12 12 11 11 11 9 7 6 7 6 6 5 6 6 6 6 6 6 6 6 7 7 8 8 7 6 7 9 10 11 10 11 12 11 11 11 11 11 11 11 10 10 9 8 8 8 7 6 4 3 3 4 4 4 4 5 4 4 3 2 2 3 4 4 4 4 4 3 3
12 13 12 12 12 10 8 6 7 6 6 6 6 6 6 5 6 6 7 7 7 9 10 11 9 7 7 8 9 10 10 11 12 11 10 11 10 10 10 10 9 9 8 8 8 8 8 7 4 3 3 3 3 4 4 6 5 4 3 2 2 3 3 5 4 4 4 4 4
13 13 14 13 13 11 9 7 6 6 6 6 7 7 7 6 6 7 8 8 8 8 9 9 10 9 9 9 9 9 9 8 10 10 10 11 10 10 10 9 9 8 8 8 8 8 7 6 5 4 3 3 3 4 5 6 6 5 4 3 2 2 4 5 5 5 5 6 6
12 13 13 14 13 13 11 8 7 6 6 5 6 7 7 7 7 7 7 7 7 7 7 8 10 11 11 11 11 10 9 8 8 8 9 10 11 10 10 9 9 9 8 8 8 8 7 6 4 4 3 3 3 4 5 6 6 6 5 4 3 3 3 4 5 5 5 6 6
12 12 12 13 13 13 12 10 8 7 7 7 7 7 8 8 8 7 6 6 6 6 7 7 9 10 11 11 11 10 9 9 8 7 8 9 10 10 10 9 9 9 8 8 8 8 7 6 4 3 3 3 3 4 5 6 7 7 6 5 4 4 4 5 5 6 6 6 6
12 12 12 11 12 13 13 11 10 9 9 9 9 9 8 8 8 8 7 7 8 8 7 7 9 10 10 10 9 9 8 8 7 6 7 8 9 9 9 8 9 9 8 7 7 8 8 6 5 4 4 4 5 5 6 6 7 7 6 4 5 5 6 6 7 7 7 6 5
13 12 11 10 11 12 13 12 11 10 10 10 10 9 9 8 8 8 8 9 10 11 11 9 9 9 10 9 8 8 7 7 6 5 6 7 7 7 7 7 8 8 8 7 7 7 7 6 6 6 6 5 6 6 7 7 8 7 6 5 6 7 7 7 7 7 7 7 6
13 12 11 11 11 12 12 12 10 10 10 10 10 9 8 8 8 8 8 9 11 13 13 13 10 9 9 8 8 8 7 7 6 5 6 6 6 6 6 6 7 7 8 8 8 7 7 7 8 9 8 8 6 6 7 8 8 8 8 8 8 8 8 8 7 6 6 6 6
12 12 12 12 12 12 12 11 10 10 10 11 10 8 7 7 8 8 9 9 10 10 11 11 9 8 8 8 8 8 8 7 6 6 6 6 6 6 6 6 7 8 8 8 8 8 8 9 10 11 10 9 7 7 8 9 9 10 10 10 9 9 9 8 7 7 6 6 5
12 12 12 12 13 12 10 10 9 9 9 10 10 8 7 7 7 8 8 9 9 8 8 8 6 6 6 8 8 8 8 8 8 7 7 7 7 7 7 7 8 8 8 8 9 9 9 10 11 12 12 11 10 9 9 9 10 10 11 11 11 10 10 9 9 8 7 7 6
13 12 12 12 12 11 10 10 8 8 9 10 9 8 8 7 7 8 8 9 8 7 6 6 5 5 6 7 8 8 8 9 9 10 9 9 9 9 9 8 9 8 8 8 8 8 9 10 11 11 12 12 12 11 10 10 10 11 11 12 12 11 11 11 10 10 9 8 7
13 13 12 12 12 11 10 9 8 8 8 8 8 8 8 7 8 8 8 9 7 6 6 6 6 6 6 7 8 8 9 9 10 11 11 10 10 10 10 10 10 9 9 8 7 7 7 8 8 9 9 10 11 10 10 10 10 10 10 10 11 11 11 11 11 10 10 10 9
12 12 12 12 12 11 11 9 8 8 8 8 8 8 7 7 7 8 8 8 7 7 7 7 7 7 7 7 8 8 8 8 9 10 10 11 11 11 11 11 11 10 10 9 8 7 6 5 5 5 6 7 7 8 8 7 7 8 8 8 9 9 9 10 10 9 9 10 10
10 10 10 10 11 11 11 10 9 9 9 9 8 7 7 7 7 7 7 8 8 9 9 9 8 8 8 9 8 8 8 8 9 9 10 10 11 11 11 11 11 11 10 10 9 8 6 5 5 4 4 5 5 5 5 5 5 5 6 7 7 7 7 7 7 7 7 7 8
9 9 8 8 9 9 10 11 10 10 9 9 8 7 6 6 6 6 6 7 8 9 10 10 9 9 10 10 10 9 8 8 9 9 10 10 10 10 10 10 10 10 10 9 9 8 7 7 6 6 6 6 6 6 6 5 5 5 6 7 7 7 7 7 7 6 5 5 5
10 9 8 8 7 8 8 9 10 10 9 8 8 8 7 6 6 6 5 5 6 8 9 10 10 10 10 11 11 10 9 8 9 9 9 9 9 9 9 9 8 8 8 8 8 8 7 7 8 8 8 8 9 9 9 8 7 7 7 7 7 8 8 8 7 7 6 6 5
10 9 9 8 8 8 8 8 9 9 10 10 10 9 9 8 7 6 5 4 5 5 6 7 8 8 9 10 10 9 8 6 8 8 8 8 8 8 8 8 8 7 7 7 7 7 8 8 8 9 9 10 10 11 11 10 10 9 8 8 8 9 9 9 8 8 8 8 7
9 9 9 9 9 9 9 9 9 10 10 10 10 11 10 10 8 7 6 6 6 6 6 6 6 6 7 7 8 8 7 6 6 7 7 7 7 7 7 8 8 8 7 7 7 7 8 8 8 9 9 10 11 11 12 12 12 11 10 10 10 10 9 9 9 9 9 9 8
9 9 9 9 9 10 10 10 10 10 10 11 11 11 11 11 10 9 8 8 8 8 7 6 6 6 6 6 7 8 8 7 7 7 7 7 7 7 7 7 8 8 8 7 7 8 8 8 8 8 9 9 10 11 12 13 13 12 12 11 11 10 9 9 8 9 9 9 8
9 9 8 8 9 10 10 10 10 10 10 11 11 11 11 11 10 10 10 9 9 8 8 7 6 7 7 7 8 8 9 10 9 9 8 8 8 7 7 7 7 7 7 6 7 7 8 7 7 7 8 8 9 10 10 11 12 13 12 12 11 10 9 8 8 8 9 9 8
9 9 9 8 9 9 9 10 10 10 10 10 10 11 11 10 10 10 10 9 9 9 8 8 7 7 7 8 8 8 9 10 10 10 10 9 8 7 7 6 6 6 5 6 8 9 9 9 8 7 7 8 8 8 8 9 11 12 12 12 11 10 9 8 8 8 8 8 7
9 9 9 9 9 9 10 10 10 10 10 10 10 10 10 10 10 10 10 9 9 9 9 8 8 7 7 8 8 8 8 9 9 10 10 9 9 8 7 6 5 5 5 7 9 11 11 11 10 9 8 7 8 7 7 8 9 10 11 11 10 10 9 9 8 8 8 7 7
9 9 9 9 9 9 9 9 9 9 9 10 10 10 10 9 9 10 10 9 9 9 8 8 7 7 7 7 8 9 8 8 9 9 10 10 9 8 7 6 5 5 6 9 11 12 12 12 11 10 9 7 7 7 7 7 8 9 10 10 9 9 9 9 9 8 8 7 6
8 9 9 9 9 9 9 9 9 9 9 9 9 9 9 10 10 10 9 9 9 8 7 7 6 6 6 6 8 8 9 9 9 9 9 9 9 9 8 6 6 6 8 11 13 13 13 13 12 12 10 8 7 7 7 8 8 8 8 8 8 8 8 8 8 7 7 7 6
9 9 9 10 9 9 9 9 9 9 9 9 9 9 10 10 10 10 9 9 8 7 7 6 5 5 5 6 7 8 9 9 8 8 9 9 9 9 8 8 7 8 11 14 14 14 14 13 13 12 11 9 6 5 5 6 6 6 6 6 6 7 7 7 6 6 6 6 6
9 9 10 10 10 9 9 8 8 8 8 8 9 9 10 10 10 9 9 8 8 7 6 5 6 6 7 8 8 8 8 8 8 8 9 10 10 9 8 8 8 9 12 15 15 14 14 13 13 12 11 10 7 6 5 5 5 5 5 5 6 6 7 7 7 7 6 6 6
9 10 10 10 10 9 9 8 8 8 8 8 9 9 9 9 9 9 8 7 7 7 7 7 8 9 9 8 8 8 8 8 8 8 9 10 10 10 9 9 9 10 12 15 15 14 14 13 13 12 11 10 8 6 5 5 5 5 5 5 6 6 7 7 7 7 7 7 7
10 10 11 11 10 9 9 8 8 8 9 9 9 9 9 9 9 8 8 7 7 8 8 9 9 9 9 8 8 8 8 8 8 8 9 9 10 10 10 9 9 10 12 15 15 14 14 13 13 12 11 10 8 6 6 6 5 5 5 6 6 6 6 6 6 7 7 7 7
10 11 11 11 10 10 9 9 9 9 9 9 9 9 9 9 9 8 8 7 7 8 9 9 9 9 9 9 8 8 8 8 8 9 9 9 10 10 9 9 8 10 12 15 15 14 14 13 13 12 12 11 8 7 6 6 5 5 5 5 6 6 6 6 6 6 7 6 6
10 10 10 10 10 10 9 9 9 9 9 9 9 9 9 9 9 8 8 6 6 7 7 7 8 8 8 8 8 8 8 8 8 8 9 9 9 9 9 7 6 9 12 15 15 14 14 14 13 13 12 11 8 6 6 6 5 5 5 5 5 6 6 6 6 6 6 6 5
9 10 10 10 10 10 9 9 9 9 9 9 9 9 8 8 8 8 7 6 6 6 7 7 7 7 7 7 8 8 8 9 8 8 8 9 9 9 9 7 7 10 13 15 15 14 14 14 13 13 12 9 7 6 6 6 6 6 6 6 6 5 5 5 5 5 5 5 5
9 9 9 9 9 9 9 9 9 9 9 9 9 8 8 8 7 6 6 6 7 7 7 7 7 7 8 7 7 7 8 8 8 8 8 8 9 9 9 8 9 11 14 15 15 14 14 14 13 12 11 8 5 5 5 5 5 5 6 6 5 5 5 5 4 4 4 4 5
8 9 9 9 9 8 8 8 9 9 9 9 8 8 7 7 6 5 5 5 6 7 7 7 7 7 7 8 7 7 7 7 8 8 8 8 8 9 9 9 10 11 13 14 14 14 14 13 13 11 9 6 5 5 5 4 4 5 5 5 5 4 4 4 4 4 4 4 4
8 8 9 9 9 8 8 8 8 9 8 8 7 7 6 6 5 5 4 4 6 6 6 6 6 7 7 7 7 7 7 7 7 7 7 7 7 8 9 9 10 10 11 13 14 14 13 13 12 11 8 6 5 4 4 4 4 4 4 4 4 3 3 3 3 4 4 4 5
8 8 8 9 9 8 8 8 8 8 8 7 7 6 6 5 4 4 4 4 5 6 6 6 6 6 6 7 7 7 7 7 6 6 6 6 6 7 8 9 9 9 10 13 14 13 13 12 12 10 8 6 5 4 4 4 4 4 4 4 3 3 3 3 3 3 3 4 5
7 7 8 8 8 8 8 8 8 7 7 7 6 6 5 4 4 4 4 4 5 5 6 6 6 6 6 7 7 7 7 6 6 5 5 5 5 6 7 7 8 9 10 12 13 13 13 12 11 10 8 5 4 4 4 4 4 4 4 3 3 3 3 2 3 3 3 3 4
6 7 7 7 7 8 8 8 7 7 6 6 6 5 4 4 4 4 4 5 5 5 5 6 6 6 6 6 6 7 7 6 5 5 5 5 5 5 6 6 7 7 9 10 12 12 12 12 11 9 8 5 4 4 3 3 4 4 4 3 3 3 3 2 2 2 2 2 2
Wind_Direction
158 159 160 159 158 156 152 144 137 137 142 149 152 153 154 154 156 156 156 155 154 152 151 151 153 152 151 152 150 147 144 141 137 134 132 131 131 130 128 126 125 124 124 124 122 121 119 120 121 122 124 125 125 125 126 128 128 128 128 130 133 133 132 132 132 133 133 132 134
158 157 155 152 150 147 142 133 125 122 126 133 138 140 142 143 144 144 144 144 141 136 131 129 134 139 143 145 143 141 139 135 132 130 128 128 128 128 126 124 124 124 124 124 123 123 123 124 124 125 127 129 127 129 132 137 136 136 137 140 140 140 138 137 138 136 135 134 136
160 159 158 157 153 147 141 135 129 123 119 116 117 119 122 125 127 129 132 135 134 132 128 125 128 133 137 139 137 136 134 132 129 127 126 126 126 125 124 122 122 122 122 122 122 122 122 123 123 125 127 130 130 131 135 140 140 142 145 149 148 147 146 144 139 135 134 137 143
162 163 165 168 164 154 142 137 135 129 122 113 109 108 108 111 114 117 120 123 130 134 138 140 135 133 133 135 137 137 136 133 129 127 125 125 124 122 122 121 121 121 120 119 118 116 115 114 114 117 122 124 126 128 132 137 136 138 142 148 148 148 147 143 137 134 134 138 142
165 168 171 175 173 163 146 135 137 133 126 117 114 112 109 107 109 110 113 115 125 137 147 155 151 144 138 135 142 146 147 145 148 144 135 125 122 120 119 119 120 120 120 117 115 112 110 107 106 109 114 117 120 124 127 127 126 126 127 130 137 141 141 137 134 131 131 132 131
165 171 175 177 174 169 158 145 140 133 127 123 123 122 120 117 114 112 112 113 117 127 139 153 158 159 155 150 157 158 156 152 163 160 147 127 121 117 117 118 120 120 119 116 114 112 111 110 109 109 109 110 111 115 119 121 122 122 122 120 126 130 130 132 131 130 129 132 132
162 167 171 173 172 171 168 160 145 132 125 124 130 134 135 134 128 121 115 113 112 117 126 141 155 165 170 170 175 177 173 162 162 151 136 124 121 120 120 122 122 123 122 120 118 118 117 115 112 110 108 107 109 113 118 121 125 126 127 128 126 121 121 124 124 126 131 137 139
162 162 163 166 168 170 170 164 149 135 128 132 142 146 147 147 148 141 130 122 117 115 119 126 144 156 166 174 178 181 181 176 163 142 125 121 121 123 124 126 127 127 126 125 125 123 119 111 106 106 110 113 114 118 123 125 128 129 130 131 124 114 109 112 115 120 129 137 140
167 163 158 157 163 167 169 163 152 147 148 154 159 159 157 155 159 159 157 154 146 135 126 121 132 142 152 162 168 171 173 176 164 142 123 118 121 124 127 129 131 131 130 130 128 124 118 110 109 114 121 123 123 126 129 130 129 130 131 130 121 108 100 101 108 115 122 130 135
170 167 162 157 158 162 164 161 156 157 162 169 170 168 164 160 161 165 170 177 178 174 161 138 134 136 142 149 155 160 166 170 161 141 124 116 120 124 129 133 135 136 136 137 131 125 122 123 131 137 138 132 133 137 139 138 133 132 131 128 118 109 103 101 108 114 119 124 130
166 168 167 162 157 158 160 160 160 164 170 176 176 173 169 165 163 164 169 178 185 189 186 174 153 143 142 146 152 159 165 169 160 141 125 119 124 131 136 142 144 146 147 148 140 136 137 145 149 150 147 142 144 148 150 147 138 134 131 127 119 114 111 110 112 116 120 127 132
157 162 164 163 158 156 156 157 159 165 172 178 179 177 173 170 166 163 166 177 186 191 192 190 176 161 153 154 160 165 168 169 157 140 128 128 136 145 152 159 165 166 163 157 152 152 155 159 157 154 151 150 153 157 158 153 143 137 134 131 126 123 122 121 121 121 124 130 135
147 153 158 160 156 153 151 149 151 158 166 174 178 178 175 171 166 164 167 179 186 188 188 190 183 171 161 158 158 160 162 162 155 147 142 143 149 156 162 169 175 175 172 164 163 164 165 164 160 156 155 156 161 165 164 158 149 144 141 138 136 134 133 131 129 127 126 130 136
139 146 152 153 151 148 145 142 143 149 156 164 171 174 172 168 164 165 171 182 184 180 175 174 173 169 163 157 153 154 156 159 160 159 159 159 160 161 163 165 167 168 169 170 172 171 169 167 163 160 159 161 165 168 168 163 156 152 149 148 146 144 142 139 136 133 131 133 136
135 141 146 145 144 142 141 140 140 144 149 154 159 162 163 162 163 166 172 180 178 170 161 156 155 155 154 152 151 153 156 160 164 167 168 169 167 166 165 164 163 165 170 175 178 177 174 170 168 166 164 164 167 169 170 167 163 159 157 156 154 152 149 146 144 142 142 143 144
136 140 143 141 140 139 140 141 140 141 143 146 149 151 153 155 161 167 171 172 167 160 153 150 146 144 144 146 148 150 154 159 163 167 170 172 171 170 169 167 167 170 174 178 181 182 180 177 175 172 170 168 168 170 170 169 166 163 161 159 157 154 152 150 150 150 151 152 155
137 141 143 142 142 142 142 142 141 141 141 141 143 144 146 148 155 163 168 167 162 157 154 151 146 144 144 145 148 149 152 156 162 166 170 172 172 172 171 171 172 174 176 178 180 181 181 181 179 174 170 166 166 167 168 168 164 161 157 153 151 149 148 148 149 152 155 158 162
134 135 138 142 144 145 145 144 143 142 141 140 140 142 143 143 148 155 161 164 162 159 157 154 151 149 149 151 153 155 157 160 164 167 170 171 171 171 172 174 175 177 177 177 176 174 170 166 160 154 149 145 144 146 148 149 146 142 139 135 134 133 133 133 136 141 149 157 163
119 117 120 129 137 142 144 145 144 143 141 139 138 139 140 141 143 148 155 163 164 162 160 157 156 156 157 157 159 161 164 166 168 170 171 170 170 170 172 173 174 175 175 174 171 166 160 154 147 142 137 130 124 120 117 114 113 114 115 114 114 114 114 113 113 116 123 133 140
103 103 105 109 116 123 130 135 137 137 136 134 132 131 130 130 129 133 141 152 158 160 160 159 159 161 161 161 162 164 166 168 169 168 168 166 166 166 166 165 166 166 166 164 161 157 153 149 146 143 139 134 128 123 118 114 112 111 109 106 105 104 105 104 103 101 99 97 95
91 94 96 97 98 102 106 113 118 121 123 122 122 121 118 114 109 108 111 117 124 134 143 149 153 156 158 159 158 158 158 158 158 158 157 155 156 156 155 153 153 153 153 152 151 149 148 147 147 145 142 139 136 132 128 124 121 118 114 110 107 105 104 104 103 101 96 91 85
77 83 87 90 91 93 95 98 102 106 109 111 111 110 109 105 101 98 94 92 94 99 106 115 124 132 138 143 144 142 138 133 135 137 139 140 142 143 142 142 142 142 143 144 143 143 143 143 144 143 142 141 139 137 134 131 127 123 119 116 112 109 107 106 106 103 100 97 93
66 72 78 83 87 89 91 93 95 97 99 101 102 102 102 102 100 97 92 89 89 90 91 93 97 104 110 117 121 122 120 117 116 116 119 123 126 129 132 134 136 139 140 141 141 140 139 139 140 140 139 139 138 137 136 134 130 127 124 121 118 115 113 112 111 109 106 104 103
65 69 74 79 84 87 90 91 92 92 94 95 97 98 98 98 97 96 93 91 91 92 93 94 96 98 101 104 108 112 115 116 114 113 112 113 118 122 126 129 132 135 137 139 141 142 142 140 140 139 137 136 136 136 135 134 131 129 128 126 123 120 118 117 117 115 114 114 113
68 70 74 78 82 85 88 89 91 92 93 95 95 96 96 96 97 97 97 96 96 98 99 101 101 102 102 103 105 108 112 115 115 115 113 112 113 116 119 121 124 126 128 130 136 140 142 143 142 140 137 133 131 130 130 129 129 128 128 127 125 124 123 124 123 122 121 121 121
74 74 75 77 81 83 86 88 91 93 94 95 96 97 97 98 99 99 99 100 101 102 103 103 104 104 105 105 106 107 108 110 112 113 114 114 113 112 112 113 113 115 119 125 133 137 139 140 139 137 134 131 129 129 128 126 125 125 124 124 125 128 130 133 132 129 127 124 127
80 80 80 80 81 82 85 88 91 92 94 95 97 99 100 102 101 101 101 102 103 102 102 101 102 104 105 105 105 106 106 106 108 110 112 114 113 112 110 108 107 109 116 124 130 132 134 134 133 131 129 128 130 131 131 128 123 121 120 122 126 132 136 139 137 134 131 127 129
84 85 85 84 83 83 85 87 90 91 94 96 98 100 102 103 103 104 105 105 104 103 101 101 102 102 102 102 104 105 106 107 108 109 110 111 111 111 110 109 108 111 117 123 125 127 127 127 126 126 125 124 126 127 127 125 122 120 120 123 130 135 138 138 136 134 131 127 128
86 86 86 86 85 85 85 87 90 93 95 97 100 101 102 103 104 105 106 106 104 104 105 107 106 104 103 104 105 105 106 107 109 110 111 110 110 109 109 110 110 114 118 122 122 122 122 123 122 122 121 121 120 120 120 119 119 120 123 128 135 138 138 135 133 131 130 127 128
84 84 84 84 84 84 84 86 90 93 96 97 98 99 100 100 101 101 102 101 102 104 107 110 109 108 108 109 108 107 107 109 111 113 114 114 113 112 112 112 114 118 121 124 123 122 122 122 121 120 118 115 111 109 110 112 115 120 126 132 135 136 135 133 132 132 131 131 132
83 83 84 83 81 81 81 82 86 88 91 93 94 94 95 95 95 96 97 98 99 100 102 104 106 106 107 107 107 107 109 110 112 114 115 116 115 114 113 113 115 119 123 125 124 123 123 122 120 118 116 112 108 105 106 109 113 119 124 129 130 130 130 131 133 135 136 137 137
84 85 84 83 81 79 78 78 79 82 84 86 88 88 89 89 90 91 92 94 97 99 100 102 103 104 103 102 102 103 105 107 110 112 114 115 115 114 113 113 115 119 123 126 124 123 122 121 119 117 115 113 109 107 107 111 112 114 116 117 120 123 126 130 133 137 139 140 140
85 86 86 86 84 81 78 76 76 77 78 80 82 84 86 87 88 88 90 91 95 98 100 102 103 103 104 104 103 102 102 104 107 109 111 113 114 114 113 113 115 121 125 127 125 123 122 121 119 118 117 115 112 110 110 112 112 111 111 112 114 117 121 126 131 135 138 138 136
85 86 87 87 87 85 82 80 78 78 78 78 79 81 83 85 87 88 89 91 93 95 96 97 99 101 102 103 104 104 104 104 106 108 111 113 114 115 116 117 120 125 128 127 125 124 123 122 122 121 120 117 114 112 112 112 111 111 111 111 112 114 117 121 126 128 130 128 123
82 84 86 87 87 87 87 85 84 83 82 81 80 80 81 82 85 88 91 93 94 93 93 93 94 96 97 98 100 103 106 108 109 112 115 118 119 120 121 123 125 129 129 127 126 125 124 124 123 122 120 117 114 113 112 112 113 114 114 113 112 112 113 115 118 119 119 117 112
77 80 82 83 84 85 86 87 87 87 86 85 84 83 82 82 83 86 90 94 95 95 95 95 97 98 100 100 101 104 108 111 113 116 119 123 125 126 127 128 129 130 130 128 126 125 125 124 123 121 119 114 111 110 111 112 113 115 115 114 114 113 112 112 113 113 112 111 110
71 76 79 80 80 81 82 84 86 87 87 87 86 86 86 86 85 86 90 95 96 97 97 98 100 102 105 106 107 108 109 111 114 118 121 125 128 129 129 129 129 130 129 128 127 126 125 124 122 120 117 111 109 109 109 110 112 114 115 115 115 114 111 110 109 108 109 111 113
68 73 76 79 79 79 80 81 83 84 85 86 85 85 86 87 88 89 91 96 99 99 99 99 101 103 105 108 109 108 108 108 112 116 120 124 126 128 128 128 129 129 130 130 128 127 125 124 122 120 116 111 111 111 112 112 113 114 116 118 117 113 107 102 101 102 106 115 123
71 75 78 81 82 82 82 82 83 84 85 85 84 83 83 85 87 88 91 94 98 101 102 101 103 105 108 110 110 109 108 106 109 112 116 118 119 120 122 124 128 130 131 132 129 128 126 125 124 121 116 109 110 112 113 113 113 114 115 117 116 111 102 91 91 94 102 116 130
78 80 83 86 87 88 88 87 87 88 89 89 87 85 84 85 87 89 91 92 96 99 101 104 107 109 112 113 112 111 108 106 106 107 110 111 109 108 112 119 126 131 132 133 131 129 128 127 125 121 115 105 105 107 109 110 109 110 111 114 116 114 104 87 83 87 96 108 126
82 86 88 90 92 94 95 95 95 94 94 94 93 91 88 87 89 92 94 97 98 100 102 105 108 110 112 112 110 109 107 104 102 104 106 107 103 102 104 112 122 129 133 134 132 131 130 129 128 125 119 107 102 100 101 102 105 108 111 113 118 119 115 101 84 80 86 94 105